Date String (YYYY-MM-DD hh:mm:ss) UTC,Instrument flags,Ambient pressure (hPa),Sample flow (lpm),Bypass flow (lpm),Sample temperature (°C),Ambient temperature (°C),ASC tube jacket temperature (°C),LED temperature (°C),Box temperature (°C),Sample RH (%),Span deviation,Mass concentration (μg/m³),Mass concentration (μg/m³),Mass concentration (μg/m³)
DateTimeUTC,F1_M11,P_M11,Q1_M11,Q2_M11,T1_M11,T2_M11,T3_M11,T4_M11,T5_M11,U1_M11,ZSPAN_M11,X2_M11,X0_M11,X1_M11
2022-10-12 02:00:00,,0825.2,5.01,0.00,30.2,28.8,00.0,38.9,32.0,16.0,0000.0,0006.09,0014.54,0004.98
2022-10-12 02:01:00,,0825.2,5.00,0.00,30.2,28.8,00.0,38.9,32.0,16.0,0000.0,0006.07,0014.33,0004.97
2022-10-12 02:02:00,,0825.2,5.01,0.00,30.2,28.8,00.0,38.9,32.0,16.0,0000.3,0006.09,0014.03,0004.95
2022-10-12 02:03:00,,0825.3,5.01,0.00,30.2,28.8,00.0,38.9,32.0,16.0,0000.6,0006.08,0013.64,0004.94
2022-10-12 02:04:00,,0825.3,5.00,0.00,30.2,28.8,00.0,38.9,32.0,16.0,0000.8,0006.08,0013.62,0004.92
2022-10-12 02:05:00,,0825.4,4.99,0.00,30.2,28.8,00.0,39.0,32.0,16.0,0000.7,0006.07,0013.99,0004.90
2022-10-12 02:06:00,,0825.4,5.00,0.00,30.2,28.8,00.0,39.0,32.0,16.0,0000.3,0006.03,0013.53,0004.87
2022-10-12 02:07:00,,0825.4,5.00,0.00,30.2,28.8,00.0,39.0,32.0,16.1,0000.0,0006.06,0013.54,0004.87
2022-10-12 02:08:00,,0825.6,5.00,0.00,30.2,28.8,00.0,39.0,32.0,16.1,-000.0,0006.04,0013.29,0004.86
2022-10-12 02:09:00,,0825.6,5.00,0.00,30.2,28.8,00.0,39.0,32.0,16.1,-000.0,0006.09,0013.30,0004.86
2022-10-12 02:10:00,,0825.7,5.00,0.00,30.2,28.8,00.0,39.0,32.0,16.1,0000.0,0006.07,0013.46,0004.84
2022-10-12 02:11:00,,0825.7,4.99,0.00,30.2,28.8,00.0,39.0,32.0,16.1,0000.0,0006.08,0013.18,0004.84
2022-10-12 02:12:00,,0825.6,5.00,0.00,30.2,28.8,00.0,39.0,32.0,16.1,0000.2,0006.02,0012.82,0004.82
2022-10-12 02:13:00,,0825.6,5.01,0.00,30.2,28.8,00.0,39.0,32.1,16.1,0000.0,0005.98,0013.05,0004.82
2022-10-12 02:14:00,,0825.5,5.00,0.00,30.2,28.8,00.0,39.0,32.1,16.1,0000.0,0005.97,0013.91,0004.82
2022-10-12 02:15:00,,0825.5,4.99,0.00,30.2,28.8,00.0,39.0,32.1,16.1,0000.0,0005.95,0014.50,0004.82
2022-10-12 02:16:00,,0825.6,5.00,0.00,30.2,28.8,00.0,39.0,32.1,16.1,0000.0,0005.96,0014.12,0004.83
2022-10-12 02:17:00,,0825.6,5.00,0.00,30.2,28.8,00.0,39.0,32.1,16.1,0000.0,0005.99,0014.30,0004.85
2022-10-12 02:18:00,,0825.7,5.00,0.00,30.2,28.8,00.0,39.0,32.1,16.1,0000.0,0005.97,0014.54,0004.87
2022-10-12 02:19:00,,0825.7,4.99,0.00,30.2,28.8,00.0,39.0,32.1,16.1,0000.0,0006.03,0015.01,0004.89
2022-10-12 02:20:00,,0825.6,5.00,0.00,30.2,28.9,00.0,39.0,32.1,16.1,0000.0,0006.05,0015.73,0004.92
2022-10-12 02:21:00,,0825.5,5.01,0.00,30.2,28.8,00.0,39.0,32.1,16.1,0000.0,0006.07,0016.09,0004.95
2022-10-12 02:22:00,,0825.4,5.01,0.00,30.3,28.8,00.0,39.0,32.1,16.1,0000.2,0006.06,0016.92,0004.96
2022-10-12 02:23:00,,0825.4,4.99,0.00,30.3,28.8,00.0,39.0,32.1,16.1,0000.0,0006.12,0017.98,0004.98
2022-10-12 02:24:00,,0825.5,5.00,0.00,30.3,28.8,00.0,39.0,32.1,16.0,0000.0,0006.19,0018.29,0005.00
2022-10-12 02:25:00,,0825.5,5.01,0.00,30.3,28.8,00.0,39.1,32.1,16.0,0000.2,0006.24,0017.80,0004.99
2022-10-12 02:26:00,,0825.6,5.00,0.00,30.3,28.8,00.0,39.1,32.0,16.1,0000.3,0006.27,0018.23,0004.98
2022-10-12 02:27:00,,0825.6,4.99,0.00,30.3,28.8,00.0,39.1,32.0,16.0,0000.0,0006.25,0018.08,0004.99
2022-10-12 02:28:00,,0825.7,4.99,0.00,30.3,28.8,00.0,39.1,32.1,16.0,0000.9,0006.26,0018.47,0004.97
2022-10-12 02:29:00,,0825.7,5.00,0.00,30.3,28.8,00.0,39.1,32.1,16.0,0000.9,0006.25,0018.88,0004.94
2022-10-12 02:30:00,,0825.6,5.00,0.00,30.3,28.8,00.0,39.1,32.1,16.0,0001.0,0006.23,0018.33,0004.90
2022-10-12 02:31:00,,0825.6,5.00,0.00,30.3,28.8,00.0,39.1,32.1,16.0,0002.3,0006.27,0017.74,0004.87
2022-10-12 02:32:00,,0825.6,5.00,0.00,30.3,28.8,00.0,39.1,32.1,16.0,0002.5,0006.29,0017.05,0004.82
2022-10-12 02:33:00,,0825.6,4.99,0.00,30.3,28.8,00.0,39.1,32.1,16.0,0002.2,0006.32,0016.51,0004.79
2022-10-12 02:34:00,,0825.7,4.99,0.00,30.3,28.7,00.0,39.1,32.0,16.0,0002.4,0006.26,0016.51,0004.75
2022-10-12 02:35:00,,0825.6,5.00,0.00,30.2,28.7,00.0,39.1,32.0,16.0,0003.1,0006.13,0016.98,0004.70
2022-10-12 02:36:00,,0825.6,5.00,0.00,30.3,28.8,00.0,39.1,32.1,16.0,0002.0,0006.04,0016.56,0004.66
2022-10-12 02:37:00,,0825.5,5.01,0.00,30.2,28.8,00.0,39.1,32.1,16.0,0000.0,0006.03,0015.32,0004.65
2022-10-12 02:38:00,,0825.6,4.99,0.00,30.2,28.8,00.0,39.1,32.0,16.0,0001.6,0006.01,0015.58,0004.62
2022-10-12 02:39:00,,0825.6,4.99,0.00,30.2,28.8,00.0,39.1,32.0,16.0,0000.7,0006.05,0016.23,0004.59
2022-10-12 02:40:00,,0825.7,5.01,0.00,30.3,28.8,00.0,39.1,32.1,15.9,0002.1,0006.09,0016.29,0004.57
2022-10-12 02:41:00,,0825.7,5.01,0.00,30.3,28.8,00.0,39.1,32.1,15.9,0001.8,0006.06,0016.65,0004.55
2022-10-12 02:42:00,,0825.7,5.01,0.00,30.3,28.8,00.0,39.1,32.1,15.9,0001.8,0005.94,0016.31,0004.53
2022-10-12 02:43:00,,0825.6,5.00,0.00,30.3,28.8,00.0,39.1,32.1,15.9,0001.1,0005.83,0015.90,0004.51
2022-10-12 02:44:00,,0825.6,4.99,0.00,30.3,28.8,00.0,39.1,32.1,15.9,0000.4,0005.78,0015.68,0004.49
2022-10-12 02:45:00,,0825.6,5.01,0.00,30.3,28.8,00.0,39.1,32.1,15.9,0000.5,0005.76,0015.26,0004.47
2022-10-12 02:46:00,,0825.7,5.00,0.00,30.3,28.8,00.0,39.1,32.0,15.9,0000.5,0005.77,0014.65,0004.45
2022-10-12 02:47:00,,0826.2,5.01,0.00,30.2,28.8,00.0,39.1,32.0,15.9,0000.7,0005.72,0014.44,0004.44
2022-10-12 02:48:00,,0825.8,5.00,0.00,30.2,28.8,00.0,39.1,32.0,15.9,0001.2,0005.70,0015.13,0004.41
2022-10-12 02:49:00,,0825.8,4.99,0.00,30.3,28.8,00.0,39.1,32.0,15.9,0001.8,0005.68,0015.41,0004.38
2022-10-12 02:50:00,,0825.8,5.01,0.00,30.3,28.8,00.0,39.1,32.1,15.8,0002.1,0005.53,0014.83,0004.35
2022-10-12 02:51:00,,0825.9,5.01,0.00,30.3,28.8,00.0,39.1,32.1,15.8,0001.8,0005.40,0014.81,0004.32
2022-10-12 02:52:00,,0825.8,5.00,0.00,30.2,28.8,00.0,39.1,32.0,15.8,0001.7,0005.34,0014.49,0004.29
2022-10-12 02:53:00,,0825.8,5.00,0.00,30.2,28.8,00.0,39.1,32.1,15.8,0001.9,0005.35,0014.89,0004.26
2022-10-12 02:54:00,,0825.9,4.99,0.00,30.2,28.8,00.0,39.1,32.0,15.8,0002.3,0005.34,0015.06,0004.23
2022-10-12 02:55:00,,0825.9,5.00,0.00,30.2,28.8,00.0,39.1,32.0,15.8,0002.4,0005.27,0014.92,0004.21
2022-10-12 02:56:00,,0826.0,5.01,0.00,30.2,28.7,00.0,39.1,32.0,15.8,0001.0,0005.22,0014.09,0004.19
2022-10-12 02:57:00,,0826.0,5.00,0.00,30.2,28.7,00.0,39.1,32.0,15.8,0000.0,0005.22,0013.89,0004.16
2022-10-12 02:58:00,,0826.0,4.99,0.00,30.2,28.7,00.0,39.1,32.0,15.8,0000.0,0005.21,0014.23,0004.13
2022-10-12 02:59:00,,0826.0,5.00,0.00,30.2,28.7,00.0,39.1,32.0,15.8,0000.0,0005.13,0013.70,0004.10
